Content
SEND FEEDBACK

Daily
Averages
Monthly
Summary
Canada

QUEBEC CITY, QUEBEC


Home > North America > Canada > Quebec
Elevation: 239 feet     Latitude: 46 48N     Longitude: 071 23W

WEATHER
 
SELECT A DAY
Number of Records: 198,385;   Date Range: 6/30/96 - 12/26/14
 
SHARE

PRINT THIS DATA

[ ← Previous Day ]
WEATHER ALMANAC - JULY 1, 2013
[ Next Day → ]
[ °C ]   °F
We're sorry. There is no daily almanac available for Quebec City, Quebec on July 1, 2013.
WEATHER BY HOUR - JULY 1, 2013
[ °C ]   °F
Local TimeTemperatureDewpointHumidityBarometerVisibilityWind DirectionWind SpeedGust SpeedPrecipitationEventsConditions
1:00 AM60.8 °F57.2 °F88 %29.96 in15.0 miNorth (10°)3.5 mphPartly Cloudy
2:00 AM57.0 °F55.0 °F91 %29.94 inNorth (10°)2.3 mph
2:00 AM59.0 °F55.4 °F88 %29.96 in15.0 miNNE (20°)2.3 mphPartly Cloudy
3:00 AM59.0 °F55.4 °F88 %29.96 in10.0 miNorth (350°)3.5 mphPartly Cloudy
4:00 AM55.4 °F53.6 °F94 %29.97 in15.0 miNW (310°)2.3 mphScattered Clouds
5:00 AM54.0 °F53.0 °F96 %29.98 inNNW (330°)3.5 mph
5:00 AM53.6 °F53.6 °F100 %29.99 in15.0 miNNW (330°)8.1 mphMostly Cloudy
6:00 AM55.4 °F53.6 °F94 %30.01 in25.0 miESE (120°)2.3 mphMostly Cloudy
7:00 AM60.8 °F53.6 °F77 %30.03 in20.0 miNorth (350°)6.9 mphOvercast
8:00 AM64.0 °F55.0 °F64 %30.03 inNorth (10°)1.2 mph
8:00 AM64.4 °F53.6 °F68 %30.05 in15.0 miNNW (330°)4.6 mphOvercast
9:00 AM68.0 °F51.8 °F56 %30.06 in20.0 miNNW (340°)8.1 mphOvercast
10:00 AM69.8 °F51.8 °F53 %30.06 in20.0 miNNW (340°)5.8 mphOvercast
11:00 AM73.0 °F53.0 °F38 %30.06 inNW (310°)4.6 mph
11:00 AM73.4 °F53.6 °F50 %30.07 in20.0 miWest (270°)5.8 mphOvercast
12:00 PM75.2 °F48.2 °F38 %30.08 in25.0 miWNW (290°)11.5 mphOvercast
1:00 PM75.2 °F46.4 °F36 %30.09 in25.0 miNW (310°)10.4 mphOvercast
2:00 PM75.0 °F38.0 °F17 %30.06 inWNW (300°)5.8 mph
2:00 PM77.0 °F42.8 °F29 %30.08 in20.0 miWNW (300°)8.1 mphMostly Cloudy
3:00 PM77.0 °F41.0 °F28 %30.07 in20.0 miWSW (240°)4.6 mphMostly Cloudy
4:00 PM78.8 °F39.2 °F24 %30.08 in20.0 miWest (270°)8.1 mphMostly Cloudy
5:00 PM74.0 °F45.0 °F25 %30.06 inSW (230°)4.6 mph
5:00 PM77.0 °F42.8 °F29 %30.08 in20.0 miWSW (240°)9.2 mphScattered Clouds
6:00 PM73.4 °F50.0 °F44 %30.10 in15.0 miEast (80°)15.0 mphMostly Cloudy
7:00 PM71.6 °F50.0 °F46 %30.12 in8.0 miENE (60°)9.2 mphOvercast
8:00 PM68.0 °F48.0 °F38 %30.11 inEast (90°)6.9 mph
8:00 PM69.8 °F46.4 °F43 %30.13 in4.0 miENE (70°)11.5 mphSmoke
9:00 PM68.0 °F46.4 °F46 %30.14 in4.0 miENE (60°)10.4 mphSmoke
10:00 PM66.2 °F46.4 °F49 %30.17 in4.0 miENE (60°)11.5 mphSmoke
11:00 PM64.0 °F48.0 °F45 %30.16 inNNE (30°)3.5 mph
11:00 PM64.4 °F46.4 °F52 %30.18 in4.0 miNE (40°)8.1 mphSmoke
Hourly data recorded from CYQB, located miles away from Quebec City, Quebec







STORIES FROM OUR PARTNERS